Weather History for PHNG - December, 2012

Change the Weather History Date:

Monday, December 10, 2012

  Actual Average Record
Temperature  
Mean Temperature 78 °F -  
Max Temperature 82 °F 76 °F - (-1)
Min Temperature 73 °F 68 °F - (-1)
Cooling Degree Days 12    
Growing Degree Days 28 (Base 50)    
Moisture  
Dew Point 66 °F    
Average Humidity 71    
Maximum Humidity 86    
Minimum Humidity 54    
Precipitation  
Precipitation 0.00 in - - ()
Sea Level Pressure  
Sea Level Pressure 30.01 in    
Wind  
Wind Speed 11 mph (East)    
Max Wind Speed 15 mph    
Max Gust Speed 28 mph    
Visibility 9 miles    
Events      
Averages and records for this station are not official NWS values.
T = Trace of Precipitation, MM = Missing Value Source: NWS Daily Summary

Daily Weather History Graph

Daily Weather History Graph

Search for Another Location

Airport or City:

Trip Planner

Search our weather history database for the weather conditions in past years. The results will help you decide how hot, cold, wet, or windy it might be!

Date:

Astronomy

Dec. 10, 2012 Rise Set
Actual Time 6:58 AM HST 5:49 PM HST
Civil Twilight 6:34 AM HST 6:14 PM HST
Nautical Twilight 6:06 AM HST 6:41 PM HST
Astronomical Twilight 5:39 AM HST 7:09 PM HST
Moon 4:07 AM HST (12/10) 3:38 PM HST (12/10)
Length of Visible Light 11h 39m
Length of Day
10h 51m
Waning Crescent, 9% of the Moon is Illuminated
Dec 10
Waning Crescent
Dec 12
New
Dec 19
First Quarter
Dec 28
Full
Jan 4
Last Quarter

Hourly Weather History & Observations

Time (HST) Temp. Heat Index Dew Point Humidity Pressure Visibility Wind Dir Wind Speed Gust Speed Precip Events Conditions
12:57 AM 74.5 °F - 70.0 °F 86% 30.00 in 10.0 mi East 11.5 mph 18.4 mph N/A   Partly Cloudy
1:57 AM 74.1 °F - 69.1 °F 84% 29.99 in 10.0 mi East 10.4 mph 16.1 mph N/A   Scattered Clouds
2:15 AM - - - N/A% 30.00 in 6.2 mi East 9.2 mph 18.4 mph N/A   Mostly Cloudy
2:57 AM 74.7 °F - 69.1 °F 83% 29.98 in 10.0 mi East 10.4 mph 20.7 mph N/A   Overcast
3:11 AM 73.4 °F - 68.0 °F 83% 29.99 in 6.2 mi East 11.5 mph 24.2 mph N/A   Overcast
3:39 AM 73.4 °F - 68.0 °F 83% 29.99 in 6.2 mi East 12.7 mph 23.0 mph N/A   Overcast
3:57 AM 74.1 °F - 68.0 °F 81% 29.97 in 10.0 mi East 15.0 mph 23.0 mph N/A   Overcast
4:04 AM 73.4 °F - 68.0 °F 83% 29.98 in 6.2 mi East 11.5 mph 23.0 mph N/A   Overcast
4:57 AM 74.1 °F - 68.0 °F 81% 29.97 in 10.0 mi East 11.5 mph 19.6 mph N/A   Overcast
5:53 AM 73.4 °F - 66.2 °F 78% 30.00 in 6.2 mi East 10.4 mph 26.5 mph N/A   Overcast
5:57 AM 73.4 °F - 66.9 °F 80% 29.99 in 10.0 mi East 9.2 mph 18.4 mph N/A   Overcast
6:57 AM 74.5 °F - 66.9 °F 77% 30.00 in 10.0 mi East 8.1 mph 20.7 mph N/A   Overcast
7:52 AM 75.2 °F - 68.0 °F 78% 30.03 in 6.2 mi East 8.1 mph 20.7 mph N/A   Scattered Clouds
7:57 AM 75.7 °F - 68.0 °F 77% 30.01 in 10.0 mi East 13.8 mph 23.0 mph N/A   Partly Cloudy
8:57 AM 75.2 °F - 66.0 °F 73% 30.03 in 10.0 mi East 13.8 mph 24.2 mph N/A   Partly Cloudy
9:57 AM 78.8 °F - 66.9 °F 67% 30.04 in 10.0 mi ENE 8.1 mph 21.9 mph N/A   Scattered Clouds
10:57 AM 78.8 °F - 66.9 °F 67% 30.04 in 10.0 mi East 9.2 mph 19.6 mph N/A   Mostly Cloudy
11:57 AM 78.8 °F - 66.9 °F 67% 30.02 in 10.0 mi East 11.5 mph 20.7 mph N/A   Mostly Cloudy
12:57 PM 80.6 °F 82.4 °F 64.9 °F 59% 29.99 in 10.0 mi East 15.0 mph 23.0 mph N/A   Mostly Cloudy
1:57 PM 82.4 °F 83.9 °F 64.0 °F 54% 29.97 in 10.0 mi East 10.4 mph 21.9 mph N/A   Scattered Clouds
2:57 PM 82.4 °F 84.1 °F 64.9 °F 55% 29.96 in 10.0 mi ENE 9.2 mph 20.7 mph N/A   Scattered Clouds
3:57 PM 77.0 °F - 64.9 °F 66% 29.97 in 10.0 mi East 10.4 mph 18.4 mph N/A   Mostly Cloudy
4:57 PM 77.0 °F - 64.0 °F 64% 29.99 in 10.0 mi ENE 15.0 mph 27.6 mph N/A   Mostly Cloudy
5:57 PM 75.2 °F - 62.1 °F 64% 30.01 in 10.0 mi East 13.8 mph 23.0 mph N/A   Mostly Cloudy
6:57 PM 75.2 °F - 63.0 °F 66% 30.02 in 10.0 mi East 9.2 mph 19.6 mph N/A   Scattered Clouds
7:05 PM 75.2 °F - 62.6 °F 65% 30.04 in 6.2 mi ENE 10.4 mph 21.9 mph N/A   Mostly Cloudy
7:13 PM 75.2 °F - 62.6 °F 65% 30.04 in 6.2 mi East 8.1 mph 21.9 mph N/A   Scattered Clouds
7:57 PM 75.2 °F - 62.1 °F 64% 30.04 in 10.0 mi East 15.0 mph 27.6 mph N/A   Scattered Clouds
8:57 PM 75.2 °F - 62.1 °F 64% 30.05 in 10.0 mi ENE 13.8 mph 21.9 mph N/A   Scattered Clouds
9:57 PM 75.2 °F - 62.1 °F 64% 30.06 in 10.0 mi East 9.2 mph 18.4 mph N/A   Partly Cloudy
10:55 PM 75.2 °F - 62.6 °F 65% 30.08 in 6.2 mi Variable 5.8 mph 17.3 mph N/A   Mostly Cloudy
10:57 PM 75.2 °F - 63.0 °F 66% 30.06 in 10.0 mi Variable 6.9 mph 17.3 mph N/A   Mostly Cloudy
11:16 PM 75.2 °F - 66.2 °F 73% 30.08 in 6.2 mi Variable 6.9 mph 21.9 mph N/A   Mostly Cloudy
11:57 PM 75.2 °F - 66.0 °F 73% 30.05 in 10.0 mi East 9.2 mph 18.4 mph N/A   Scattered Clouds